Find Kosmos-1703

NORAD ID: 16262 Int'l Des: 1985-108 Owner: GRU Country: SU operational
LEOCIRCULARPOLAR

Live Position

Loading 3D Globe...

About Kosmos-1703

Description loading...

Upcoming Passes

Passes for default location (London). Set your location on the main map for personalized predictions.

Altitude History

Loading altitude history...

Two-Line Element Set

1 16262U 85108A 26105.57458277 .00013230 00000-0 21632-3 0 9994
2 16262 82.4549 282.9380 0004584 211.7846 148.3130 15.52367068207746
Epoch: Apr 15, 2026 • Age: 9 hours

Current Status

Altitude 410.3 km
Velocity 7.67 km/s
Sub-Earth Point -0.61°S, 75.94°W
Launch Date Nov 22, 1985
Age 40.3 years
Type other

Technical Details

Classification Payload
Mass 1750.00 kg
Dry Mass 1750.00 kg
Total Mass 1750.00 kg
Length 3.20 m
Diameter 1.30 m
Span 13.10 m
Shape Cyl + Ant
Manufacturer YUZH
Bus Type Tselina-D
Phase Status In Orbit
Owner/State GRU/SU

Most Searched